This is the latest recevied weather packets stored in our database for station/object W4MSI. If no packets are shown the sender has not sent any weather packets the latest 1 day(s).
| Time | Temp. | Humidity | Pressure | Rain* | Wind** | Luminosity | Snow |
|---|---|---|---|---|---|---|---|
| 1778029628 | 15.56° C | 91% | 1006.7 hPa | 0 mm | 0 m/s | 0 W/m² | - |
| 1778029325 | 16.11° C | 91% | 1006.5 hPa | 0 mm | 0.89 m/s, 46° | 0 W/m² | - |
| 1778029022 | 16.11° C | 91% | 1006.7 hPa | 0 mm | 0.45 m/s, 188° | 0 W/m² | - |
| 1778028719 | 15.56° C | 92% | 1007.1 hPa | 0 mm | 0.89 m/s, 163° | 0 W/m² | - |
| 1778028415 | 15.56° C | 91% | 1006.9 hPa | 0 mm | 0.45 m/s, 325° | 0 W/m² | - |
| 1778028113 | 16.11° C | 91% | 1007 hPa | 0 mm | 0 m/s | 0 W/m² | - |
| 1778027809 | 15.56° C | 92% | 1007.2 hPa | 0 mm | 0.89 m/s, 196° | 1 W/m² | - |
| 1778027505 | 15.56° C | 93% | 1007.1 hPa | 0 mm | 2.68 m/s, 253° | 1 W/m² | - |
| 1778027201 | 15.56° C | 94% | 1007.5 hPa | 0 mm | 0.89 m/s, 223° | 1 W/m² | - |
| 1778026897 | 15.56° C | 93% | 1007.3 hPa | 0 mm | 0 m/s | 2 W/m² | - |
| 1778026593 | 15.56° C | 93% | 1007.2 hPa | 0 mm | 0.45 m/s, 153° | 2 W/m² | - |
| 1778026291 | 15.56° C | 93% | 1007.1 hPa | 0 mm | 0 m/s | 3 W/m² | - |
| 1778025988 | 15.56° C | 93% | 1007.1 hPa | 0 mm | 0 m/s | 6 W/m² | - |
| 1778025685 | 15.56° C | 92% | 1007.2 hPa | 0 mm | 0.45 m/s, 134° | 7 W/m² | - |
| 1778025383 | 15.56° C | 91% | 1007.3 hPa | 0 mm | 0 m/s | 9 W/m² | - |
| 1778025080 | 15.56° C | 92% | 1007.5 hPa | 0 mm | 0.89 m/s, 205° | 9 W/m² | - |
| 1778024777 | 15.56° C | 92% | 1007.5 hPa | 0 mm | 0.45 m/s, 216° | 7 W/m² | - |
| 1778024473 | 15.56° C | 91% | 1007.6 hPa | 0 mm | 0 m/s | 6 W/m² | - |
| 1778024171 | 16.11° C | 91% | 1007.5 hPa | 0 mm | 0 m/s | 8 W/m² | - |
| 1778023868 | 16.11° C | 90% | 1007.8 hPa | 0 mm | 0 m/s | 8 W/m² | - |
| 1778023566 | 16.11° C | 89% | 1007.8 hPa | 1.78 mm | 0.45 m/s, 235° | 13 W/m² | - |
| 1778023263 | 16.11° C | 87% | 1007.9 hPa | 1.78 mm | 1.34 m/s, 249° | 11 W/m² | - |
| 1778022960 | 16.67° C | 86% | 1007.9 hPa | 1.78 mm | 4.47 m/s, 199° | 15 W/m² | - |
| 1778022659 | 16.67° C | 87% | 1008.2 hPa | 6.1 mm | 5.36 m/s, 190° | 17 W/m² | - |
| 1778022356 | 16.67° C | 85% | 1008.1 hPa | 10.67 mm | 0.89 m/s, 193° | 26 W/m² | - |
* Rain latest hour (hover to see other rain measurements)
** Current wind speed in m/s (hover to see current wind gust speed)